SCP
0 0 0 0 0 0 0 0 0 0 0 0 0 0 0 0 0 0 0 0 0 0 0 0 0 -0 -0 -0 0 0 0 0
0 0 0 0 0 0 0 0 0 0 0 0 0 0 0 0 0 0 0 0 0 0 0 0 0 0 0 -0 -0 0 0 0
0 0 0 0 0 0 0 0 0 0 0 0 0 0 0 0 0 0 0 0 0 0 0 0 0 0 0 0 -0 0 0 0
0 0 0 0 0 0 0 0 0 0 0 0 0 0 0 0 0 0 0 0 0 0 0 0 0 0 0 0 0 0 0 0
0 0 0 0 0 0 0 0 0 0 0 0 0 0 0 0 0 0 0 0 0 0 0 0 0 0 0 0 0 0 0 0
0 0 0 0 0 0 0 0 0 0 0 0 0 0 0 0 0 0 0 0 0 0 0 0 0 0 0 0 0 0 0 0
0 0 0 0 0 0 0 0 0 0 0 0 0 0 0 0 0 0 0 0 0 0 0 0 0 0 0 0 0 0 0 0
0 0 0 0 0 0 0 0 0 0 0 0 0 0 0 0 0 0 0 0 0 0 0 0 0 0 0 0 0 0 0 0
0 0 0 0 0 0 0 0 0 0 0 0 0 0 0 0 0 0 0 0 0 0 0 0 0 0 0 0 0 0 0 0
0 0 0 0 0 0 0 0 0 0 0 0 0 0 0 0 0 0 0 0 0 0 0 0 0 0 0 0 0 0 0 0
0 0 0 0 0 0 0 0 0 0 0 0 0 0 0 0 0 0 0 0 0 0 0 0 0 0 0 0 0 0 0 0
0 0 0 0 0 0 0 0 0 0 0 0 0 0 0 0 0 0 0 0 0 0 0 0 0 0 0 0 0 0 0 0
0 0 0 0 0 0 0 0 0 0 0 0 0 0 0 0 0 0 0 0 0 0 0 0 0 0 0 0 0 0 0 0
0 0 0 0 0 0 0 0 0 0 0 0 0 0 0 0 0 0 0 0 0 0 0 0 0 0 0 0 0 0 0 0
0 -0 0 0 0 0 0 0 0 0 0 0 0 0 0 0 0 0 0 0 0 0 0 0 0 0 0 -0 -0 -0 0 0
-0 -0 0 0 0 0 0 0 -0 -0 0 0 0 0 0 -0 0 0 -0 0 0 0 0 0 0 0 0 -0 -0 -0 -0 0
-0 0 0 0 0 0 0 0 0 0 0 0 0 0 0 0 0 0 0 -0 -0 0 0 0 0 0 -0 0 0 -0 -0 -0
0 0 0 0 0 0 0 0 0 0 0 0 0 0 0 0 0 0 0 0 -0 -0 0 0 0 0 0 0 0 0 -0 -0
0 0 0 0 0 0 0 0 0 0 0 0 -0 0 0 0 0 0 0 0 0 -0 0 0 0 0 0 -0 -0 0 0 -0
Wind_Speed_500mb
10 14 5 7 9 6 14 7 8 4 5 6 18 32 44 47 8 18 41 67 84 72 82 82 92 93 97 95 96 92 77 70
12 11 17 14 2 6 7 8 6 6 6 7 25 31 31 37 40 27 16 44 58 73 87 90 93 95 95 92 92 97 87 76
9 14 8 11 9 11 10 6 10 8 5 10 12 14 22 40 52 50 40 29 55 66 79 97 98 95 97 101 96 100 98 87
5 10 9 10 7 6 9 6 3 6 5 9 16 28 33 45 54 51 45 38 28 64 74 80 94 98 99 98 98 98 100 97
7 11 10 13 10 8 8 5 2 9 8 8 25 36 47 46 60 55 52 44 32 9 46 72 82 90 96 100 98 95 98 99
12 9 6 8 5 7 9 6 5 9 3 14 26 24 43 57 61 51 65 50 38 19 15 43 62 75 82 88 92 92 90 92
7 7 6 5 7 5 4 8 7 8 6 8 8 14 29 42 57 64 62 57 53 31 16 5 22 52 62 72 77 79 82 82
5 9 6 6 11 13 10 7 12 12 6 14 13 23 45 47 53 57 60 58 45 51 37 14 8 24 32 53 58 59 64 64
5 4 5 7 4 2 2 6 3 8 5 16 16 30 31 42 44 43 55 58 49 42 46 37 22 13 31 22 30 42 50 58
5 4 5 7 8 8 3 5 6 2 8 12 19 43 28 20 39 42 44 48 50 43 37 39 34 17 13 23 32 27 47 56
6 2 6 7 9 8 8 2 18 11 23 25 39 34 10 8 39 42 45 42 37 41 37 30 34 32 29 10 19 22 22 39
3 5 4 4 6 12 5 8 16 20 27 35 33 7 7 32 61 56 44 41 39 35 39 36 31 29 29 32 22 9 13 17
5 2 8 6 16 13 4 7 17 15 21 30 14 17 55 63 65 64 61 53 42 37 37 41 38 33 26 24 37 33 17 10
5 7 13 6 6 6 6 28 33 36 33 38 51 55 54 70 70 70 70 62 47 47 42 36 41 40 42 30 26 26 34 30
12 9 9 15 11 6 9 17 29 37 46 48 57 65 63 63 77 74 71 73 61 54 51 44 41 43 41 39 38 38 41 46
7 7 25 32 12 10 9 15 22 27 38 47 57 63 73 69 69 78 77 75 70 60 58 56 43 46 44 33 41 44 45 51
10 19 24 20 10 15 14 27 36 40 47 57 58 59 65 66 62 76 83 75 66 63 64 61 49 49 44 40 39 47 46 49
11 19 10 7 2 8 19 29 34 42 50 66 57 57 60 60 62 69 74 69 72 65 64 62 53 53 49 47 47 46 45 51
4 11 16 5 8 12 14 24 35 38 44 58 55 53 49 53 64 62 65 68 67 60 48 53 55 56 51 55 58 46 47 50
Wind_Direction_500mb
54 26 37 157 67 171 105 13 85 241 297 329 360 14 12 27 40 233 232 234 234 232 222 228 226 223 225 226 224 224 224 224
307 15 26 92 108 75 15 119 142 310 63 309 348 348 347 358 357 346 283 244 241 230 223 224 231 232 229 231 231 230 226 228
33 12 287 3 19 37 108 98 148 155 279 17 323 325 338 340 345 345 337 286 239 237 232 226 228 228 232 231 232 232 231 228
60 298 16 70 73 86 115 218 33 113 223 57 352 350 359 351 349 355 358 346 300 234 230 222 225 227 228 231 234 233 232 231
26 331 8 47 345 110 96 84 165 130 225 16 12 10 4 358 360 15 24 20 13 300 232 220 224 228 229 230 232 235 233 233
171 144 131 78 359 19 97 93 175 209 259 346 356 14 4 359 3 2 19 35 37 44 205 218 219 228 230 231 232 233 234 236
73 92 93 125 176 196 183 190 173 165 147 318 4 355 19 9 12 14 13 18 36 35 40 27 225 220 225 228 231 234 235 239
85 53 75 198 234 231 244 267 279 289 99 324 357 12 26 19 15 12 10 16 22 33 33 37 201 197 208 222 230 233 239 242
158 360 34 54 316 248 244 57 316 240 31 20 344 353 354 16 23 8 8 9 17 21 34 28 23 222 209 208 213 230 242 244
146 23 158 207 8 350 196 96 10 2 20 33 342 323 312 15 21 11 9 7 8 4 23 40 37 45 223 216 210 219 229 243
113 111 274 94 11 9 25 36 29 353 354 349 345 335 189 341 1 348 345 352 351 348 351 21 39 33 48 105 208 213 224 228
101 100 197 126 258 314 206 254 20 1 335 335 348 360 265 282 314 321 323 330 336 336 334 333 8 38 29 31 49 83 224 224
142 124 298 159 303 350 154 292 318 322 323 318 301 278 293 301 301 306 306 310 315 316 317 324 326 335 336 346 12 30 19 13
85 179 257 182 35 188 293 316 314 316 309 302 297 295 296 299 296 298 299 299 300 301 300 309 317 324 308 324 330 1 19 8
179 210 149 155 203 229 331 296 299 301 305 301 296 297 301 300 298 293 290 292 296 294 290 289 297 308 312 305 306 303 310 321
50 207 209 216 216 209 2 340 325 312 318 314 295 297 298 299 296 296 297 290 291 290 282 279 286 295 303 307 310 309 305 308
250 257 245 252 220 227 291 317 318 320 318 317 310 297 297 293 290 295 290 293 291 283 279 271 278 287 297 299 299 301 303 307
218 199 156 179 20 314 309 319 318 318 317 321 313 305 302 291 289 295 289 292 291 282 271 260 267 275 283 292 293 295 298 300
203 195 206 225 299 326 307 318 319 317 320 322 316 315 307 289 300 295 288 285 282 283 255 254 259 266 275 281 285 284 290 288
Wind_Speed_850mb
10 14 5 7 9 6 14 7 8 4 5 6 18 32 44 47 8 18 41 67 84 72 82 82 92 93 97 95 96 92 77 70
12 11 17 14 2 6 7 8 6 6 6 7 25 31 31 37 40 27 16 44 58 73 87 90 93 95 95 92 92 97 87 76
9 14 8 11 9 11 10 6 10 8 5 10 12 14 22 40 52 50 40 29 55 66 79 97 98 95 97 101 96 100 98 87
5 10 9 10 7 6 9 6 3 6 5 9 16 28 33 45 54 51 45 38 28 64 74 80 94 98 99 98 98 98 100 97
7 11 10 13 10 8 8 5 2 9 8 8 25 36 47 46 60 55 52 44 32 9 46 72 82 90 96 100 98 95 98 99
12 9 6 8 5 7 9 6 5 9 3 14 26 24 43 57 61 51 65 50 38 19 15 43 62 75 82 88 92 92 90 92
7 7 6 5 7 5 4 8 7 8 6 8 8 14 29 42 57 64 62 57 53 31 16 5 22 52 62 72 77 79 82 82
5 9 6 6 11 13 10 7 12 12 6 14 13 23 45 47 53 57 60 58 45 51 37 14 8 24 32 53 58 59 64 64
5 4 5 7 4 2 2 6 3 8 5 16 16 30 31 42 44 43 55 58 49 42 46 37 22 13 31 22 30 42 50 58
5 4 5 7 8 8 3 5 6 2 8 12 19 43 28 20 39 42 44 48 50 43 37 39 34 17 13 23 32 27 47 56
6 2 6 7 9 8 8 2 18 11 23 25 39 34 10 8 39 42 45 42 37 41 37 30 34 32 29 10 19 22 22 39
3 5 4 4 6 12 5 8 16 20 27 35 33 7 7 32 61 56 44 41 39 35 39 36 31 29 29 32 22 9 13 17
5 2 8 6 16 13 4 7 17 15 21 30 14 17 55 63 65 64 61 53 42 37 37 41 38 33 26 24 37 33 17 10
5 7 13 6 6 6 6 28 33 36 33 38 51 55 54 70 70 70 70 62 47 47 42 36 41 40 42 30 26 26 34 30
12 9 9 15 11 6 9 17 29 37 46 48 57 65 63 63 77 74 71 73 61 54 51 44 41 43 41 39 38 38 41 46
7 7 25 32 12 10 9 15 22 27 38 47 57 63 73 69 69 78 77 75 70 60 58 56 43 46 44 33 41 44 45 51
10 19 24 20 10 15 14 27 36 40 47 57 58 59 65 66 62 76 83 75 66 63 64 61 49 49 44 40 39 47 46 49
11 19 10 7 2 8 19 29 34 42 50 66 57 57 60 60 62 69 74 69 72 65 64 62 53 53 49 47 47 46 45 51
4 11 16 5 8 12 14 24 35 38 44 58 55 53 49 53 64 62 65 68 67 60 48 53 55 56 51 55 58 46 47 50
Wind_Direction_850mb
54 26 37 157 67 171 105 13 85 241 297 329 360 14 12 27 40 233 232 234 234 232 222 228 226 223 225 226 224 224 224 224
307 15 26 92 108 75 15 119 142 310 63 309 348 348 347 358 357 346 283 244 241 230 223 224 231 232 229 231 231 230 226 228
33 12 287 3 19 37 108 98 148 155 279 17 323 325 338 340 345 345 337 286 239 237 232 226 228 228 232 231 232 232 231 228
60 298 16 70 73 86 115 218 33 113 223 57 352 350 359 351 349 355 358 346 300 234 230 222 225 227 228 231 234 233 232 231
26 331 8 47 345 110 96 84 165 130 225 16 12 10 4 358 360 15 24 20 13 300 232 220 224 228 229 230 232 235 233 233
171 144 131 78 359 19 97 93 175 209 259 346 356 14 4 359 3 2 19 35 37 44 205 218 219 228 230 231 232 233 234 236
73 92 93 125 176 196 183 190 173 165 147 318 4 355 19 9 12 14 13 18 36 35 40 27 225 220 225 228 231 234 235 239
85 53 75 198 234 231 244 267 279 289 99 324 357 12 26 19 15 12 10 16 22 33 33 37 201 197 208 222 230 233 239 242
158 360 34 54 316 248 244 57 316 240 31 20 344 353 354 16 23 8 8 9 17 21 34 28 23 222 209 208 213 230 242 244
146 23 158 207 8 350 196 96 10 2 20 33 342 323 312 15 21 11 9 7 8 4 23 40 37 45 223 216 210 219 229 243
113 111 274 94 11 9 25 36 29 353 354 349 345 335 189 341 1 348 345 352 351 348 351 21 39 33 48 105 208 213 224 228
101 100 197 126 258 314 206 254 20 1 335 335 348 360 265 282 314 321 323 330 336 336 334 333 8 38 29 31 49 83 224 224
142 124 298 159 303 350 154 292 318 322 323 318 301 278 293 301 301 306 306 310 315 316 317 324 326 335 336 346 12 30 19 13
85 179 257 182 35 188 293 316 314 316 309 302 297 295 296 299 296 298 299 299 300 301 300 309 317 324 308 324 330 1 19 8
179 210 149 155 203 229 331 296 299 301 305 301 296 297 301 300 298 293 290 292 296 294 290 289 297 308 312 305 306 303 310 321
50 207 209 216 216 209 2 340 325 312 318 314 295 297 298 299 296 296 297 290 291 290 282 279 286 295 303 307 310 309 305 308
250 257 245 252 220 227 291 317 318 320 318 317 310 297 297 293 290 295 290 293 291 283 279 271 278 287 297 299 299 301 303 307
218 199 156 179 20 314 309 319 318 318 317 321 313 305 302 291 289 295 289 292 291 282 271 260 267 275 283 292 293 295 298 300
203 195 206 225 299 326 307 318 319 317 320 322 316 315 307 289 300 295 288 285 282 283 255 254 259 266 275 281 285 284 290 288